Regional Weather Roundup
Issued by NWS

Home | Current Version | Previous Version | Graphics & Text | Print | Product List | Glossary On
Versions: 1 2 3 4 5 6 7 8 9 10 11 12 13 14 15 16 17 18 19 20 21 22 23 24 25 26 27 28 29 30 31 32 33 34 35 36 37 38 39 40 41 42 43 44 45 46 47 48 49 50
000
ASUS43 KBIS 181910
RWRND

NORTH DAKOTA REGIONAL WEATHER ROUNDUP
NATIONAL WEATHER SERVICE BISMARCK ND
200 PM CDT FRI APR 18 2014

NOTE: "FAIR" INDICATES FEW OR NO CLOUDS BELOW 12,000 FEET WITH NO
SIGNIFICANT WEATHER AND/OR OBSTRUCTIONS TO VISIBILITY.


NDZ001>003-009>011-017-182000-
NORTHWEST NORTH DAKOTA

CITY           SKY/WX    TMP DP  RH WIND       PRES   REMARKS
WILLISTON      CLOUDY    51  30  44 SE21G31   29.73F
MINOT          PTSUNNY   50  26  39 E29G39    29.88F
MINOT AFB      PTSUNNY   49  29  46 SE30G38   29.88F
$$

NDZ018>021-031>035-040>046-182000-
SOUTHWEST NORTH DAKOTA

CITY           SKY/WX    TMP DP  RH WIND       PRES   REMARKS
BISMARCK       MOSUNNY   57  33  40 SE24G33   29.88F
DICKINSON      CLOUDY    54  32  43 SE26G36   29.71F
GARRISON         N/A     52  28  39 SE28G38   29.83F
HETTINGER ARPT CLOUDY    56  35  45 E21G31    29.75F
$$

NDZ004>008-012>016-024-026-027-054-182000-
NORTHEAST NORTH DAKOTA

CITY           SKY/WX    TMP DP  RH WIND       PRES   REMARKS
GRAND FORKS    CLOUDY    50  25  37 SE24      30.16F
GRND FRKS AFB  CLOUDY    49  24  37 SE22G30   30.15F
DEVILS LAKE    CLOUDY    46  27  46 SE26G35   30.05F
$$

NDZ022-023-025-028>030-036>039-047>053-182000-
SOUTHEAST NORTH DAKOTA

CITY           SKY/WX    TMP DP  RH WIND       PRES   REMARKS
FARGO          PTSUNNY   51  30  44 SE21G31   30.15F
JAMESTOWN      MOSUNNY   50  27  40 SE33G41   30.00F
$$




USA.gov is the U.S. government's official web portal to all federal, state and local government web resources and services.